Weather History for South Bend, IN

Change the Weather History Date:

Thursday, January 16, 2014

  Actual Average Record
Temperature  
Mean Temperature 24 °F 24 °F  
Max Temperature 32 °F 31 °F 57 °F (1949)
Min Temperature 16 °F 17 °F -19 °F (1972)
Degree Days  
Heating Degree Days 41 41  
Month to date heating degree days 653 648  
Since 1 July heating degree days 3139 3039  
Cooling Degree Days 0 0  
Month to date cooling degree days 0 0  
Year to date cooling degree days 0 0  
Moisture  
Dew Point 20 °F    
Average Humidity 78    
Maximum Humidity 88    
Minimum Humidity 67    
Precipitation  
Precipitation 0.08 in 0.08 in 1.23 in (1959)
Month to date precipitation 2.22 1.29  
Year to date precipitation 2.22 1.29  
Snow  
Snow 0.00 in 0.70 in 15.00 in (1959)
Month to date snowfall 10.4  
Since 1 July snowfall 32.9  
Snow Depth -    
Sea Level Pressure  
Sea Level Pressure 29.68 in    
Wind  
Wind Speed 15 mph (SSW)    
Max Wind Speed 21 mph    
Max Gust Speed 29 mph    
Visibility 5 miles    
Events Fog , Snow    
T = Trace of Precipitation, MM = Missing Value Source: NWS Daily Summary

Daily Weather History Graph

Daily Weather History Graph

Search for Another Location

Airport:

Trip Planner

Search our weather history database for the weather conditions in past years. The results will help you decide how hot, cold, wet, or windy it might be!

Date:

Astronomy

Jan. 16, 2014 Rise Set
Actual Time 8:09 AM EST 5:41 PM EST
Civil Twilight 7:38 AM EST 6:11 PM EST
Nautical Twilight 7:04 AM EST 6:45 PM EST
Astronomical Twilight 6:31 AM EST 7:19 PM EST
Moon 6:33 PM EST (1/16) 8:01 AM EST (1/16)
Length of Visible Light 10h 32m
Length of Day
9h 31m
Full, 100% of the Moon is Illuminated
Jan 16
Full
Jan 24
Last Quarter
Jan 30
New
Feb 6
First Quarter
Feb 14
Full

Hourly Weather History & Observations

Time (EST) Temp. Windchill Dew Point Humidity Pressure Visibility Wind Dir Wind Speed Gust Speed Precip Events Conditions
12:54 AM 17.1 °F 3.6 °F 9.0 °F 71% 29.94 in 10.0 mi South 12.7 mph - N/A   Clear
1:54 AM 17.1 °F 4.3 °F 10.0 °F 74% 29.94 in 10.0 mi South 11.5 mph - N/A   Partly Cloudy
2:54 AM 19.0 °F 5.6 °F 10.9 °F 71% 29.90 in 10.0 mi South 13.8 mph - N/A   Overcast
3:54 AM 19.9 °F 5.7 °F 12.0 °F 71% 29.85 in 10.0 mi South 16.1 mph - N/A   Overcast
4:54 AM 21.0 °F 7.6 °F 12.0 °F 68% 29.81 in 10.0 mi South 15.0 mph - N/A   Overcast
5:32 AM 21.2 °F 6.8 °F 12.2 °F 68% 29.76 in 2.5 mi South 17.3 mph - 0.00 in Snow Light Snow
5:40 AM 19.4 °F 4.5 °F 14.0 °F 80% 29.75 in 1.2 mi South 17.3 mph 24.2 mph 0.00 in Snow Light Snow
5:54 AM 19.9 °F 5.7 °F 15.1 °F 81% 29.78 in 2.5 mi South 16.1 mph - 0.01 in Snow Light Snow
6:03 AM 21.2 °F 7.8 °F 15.8 °F 80% 29.74 in 2.5 mi South 15.0 mph - 0.00 in Snow Light Snow
6:18 AM 21.2 °F 6.4 °F 15.8 °F 80% 29.71 in 8.0 mi South 18.4 mph 25.3 mph 0.00 in   Overcast
6:54 AM 21.0 °F 7.6 °F 15.1 °F 78% 29.75 in 4.0 mi South 15.0 mph 23.0 mph 0.01 in Snow Light Snow
7:22 AM 21.2 °F 7.3 °F 15.8 °F 80% 29.70 in 2.5 mi South 16.1 mph - 0.00 in Snow Light Snow
7:54 AM 21.9 °F 7.8 °F 17.1 °F 82% 29.72 in 2.5 mi South 17.3 mph 25.3 mph 0.00 in Snow Light Snow
8:01 AM 21.2 °F 6.8 °F 15.8 °F 80% 29.67 in 6.0 mi South 17.3 mph - 0.00 in Snow Light Snow
8:16 AM 21.2 °F 7.3 °F 17.6 °F 86% 29.68 in 2.5 mi South 16.1 mph - 0.00 in Snow Light Snow
8:54 AM 23.0 °F 10.1 °F 18.0 °F 81% 29.71 in 2.5 mi South 15.0 mph - 0.00 in Snow Light Snow
9:04 AM 23.0 °F 9.6 °F 17.6 °F 80% 29.67 in 1.2 mi South 16.1 mph - 0.00 in Snow Light Snow
9:20 AM 24.8 °F 11.5 °F 17.6 °F 74% 29.67 in 3.0 mi South 17.3 mph - 0.00 in Snow Light Snow
9:54 AM 24.1 °F 11.0 °F 18.0 °F 77% 29.71 in 10.0 mi South 16.1 mph 21.9 mph 0.00 in   Overcast
10:54 AM 25.0 °F 13.6 °F 19.0 °F 78% 29.71 in 3.0 mi SSW 12.7 mph - 0.00 in Snow Light Snow
10:58 AM 24.8 °F 12.9 °F 19.4 °F 80% 29.67 in 1.5 mi SSW 13.8 mph - 0.00 in Snow Light Snow
11:10 AM 24.8 °F 12.4 °F 19.4 °F 80% 29.66 in 0.8 mi SSW 15.0 mph - 0.00 in Snow Light Snow
11:52 AM 24.8 °F 12.9 °F 21.2 °F 86% 29.64 in 1.0 mi South 13.8 mph - 0.02 in Snow Light Snow
11:54 AM 25.0 °F 13.6 °F 21.0 °F 85% 29.68 in 1.0 mi South 12.7 mph - 0.02 in Snow Light Snow
12:07 PM 26.6 °F 13.8 °F 21.2 °F 80% 29.63 in 2.0 mi South 17.3 mph - 0.00 in Snow Light Snow
12:09 PM 26.6 °F 14.7 °F 21.2 °F 80% 29.63 in 4.0 mi SSW 15.0 mph - 0.00 in Snow Light Snow
12:54 PM 27.0 °F 13.5 °F 21.0 °F 78% 29.63 in 6.0 mi South 19.6 mph 28.8 mph 0.00 in Snow Light Snow
1:54 PM 28.0 °F 15.7 °F 21.9 °F 78% 29.60 in 9.0 mi SSW 17.3 mph 25.3 mph N/A   Overcast
2:54 PM 28.9 °F 18.2 °F 23.0 °F 78% 29.59 in 6.0 mi SSW 13.8 mph - 0.00 in Snow Light Snow
3:54 PM 28.9 °F 18.2 °F 24.1 °F 82% 29.59 in 2.5 mi South 13.8 mph - 0.00 in Snow Light Snow
4:03 PM 28.4 °F 18.5 °F 24.8 °F 86% 29.55 in 1.0 mi SSW 11.5 mph - 0.00 in Snow Light Snow
4:14 PM 28.4 °F 18.0 °F 24.8 °F 86% 29.56 in 0.5 mi SSW 12.7 mph - 0.00 in Fog , Snow Snow
4:17 PM 28.4 °F 17.5 °F 24.8 °F 86% 29.56 in 1.0 mi SSW 13.8 mph - 0.01 in Snow Light Snow
4:47 PM 28.4 °F 17.0 °F 24.8 °F 86% 29.56 in 0.5 mi SSW 15.0 mph - 0.02 in Fog , Snow Snow
4:54 PM 28.9 °F 17.7 °F 25.0 °F 85% 29.59 in 0.5 mi SSW 15.0 mph - 0.02 in Fog , Snow Snow
5:03 PM 28.4 °F 17.0 °F 24.8 °F 86% 29.56 in 0.8 mi SSW 15.0 mph - 0.00 in Snow Light Snow
5:22 PM 28.4 °F 18.5 °F 26.6 °F 93% 29.56 in 3.0 mi South 11.5 mph - 0.01 in Snow Light Snow
5:54 PM 30.0 °F 19.5 °F 25.0 °F 82% 29.60 in 6.0 mi South 13.8 mph - 0.01 in Snow Light Snow
6:06 PM 30.2 °F 19.8 °F 26.6 °F 86% 29.56 in 2.0 mi SSW 13.8 mph - 0.00 in Snow Light Snow
6:54 PM 30.0 °F 20.0 °F 25.0 °F 82% 29.60 in 4.0 mi SSW 12.7 mph - 0.01 in Snow Light Snow
7:54 PM 30.0 °F 18.7 °F 26.1 °F 85% 29.61 in 3.0 mi SSW 16.1 mph - 0.00 in Snow Light Snow
8:27 PM 30.2 °F 20.2 °F 26.6 °F 86% 29.58 in 5.0 mi SSW 12.7 mph 23.0 mph 0.00 in Snow Light Snow
8:54 PM 30.9 °F 22.2 °F 27.0 °F 85% 29.62 in 6.0 mi WSW 10.4 mph 20.7 mph 0.00 in Snow Light Snow
9:14 PM 30.2 °F 19.3 °F 26.6 °F 86% 29.60 in 6.0 mi WNW 15.0 mph 19.6 mph 0.00 in Snow Light Snow
9:24 PM 30.2 °F 18.5 °F 24.8 °F 80% 29.60 in 9.0 mi West 17.3 mph 24.2 mph 0.00 in   Overcast
9:54 PM 30.0 °F 18.7 °F 21.9 °F 72% 29.65 in 10.0 mi WSW 16.1 mph - 0.00 in   Overcast
10:54 PM 28.0 °F 14.9 °F 19.9 °F 72% 29.67 in 9.0 mi West 19.6 mph - 0.00 in   Overcast
11:54 PM 27.0 °F 16.7 °F 17.1 °F 66% 29.68 in 10.0 mi West 11.5 mph - N/A   Overcast